This is the latest recevied weather packets stored in our database for station/object KU9TRY. If no packets are shown the sender has not sent any weather packets the latest 10 day(s).
| Time | Temp. | Humidity | Pressure | Rain* | Wind** | Luminosity | Snow |
|---|---|---|---|---|---|---|---|
| 1777724254 | 7.22° C | 90% | 1017.5 hPa | 0 mm | - | 53 W/m² | - |
| 1777723951 | 6.67° C | 91% | 1017.4 hPa | 0 mm | - | 45 W/m² | - |
| 1777723648 | 6.67° C | 91% | 1017.2 hPa | 0 mm | - | 45 W/m² | - |
| 1777723344 | 6.67° C | 91% | 1017.6 hPa | 0 mm | - | 45 W/m² | - |
| 1777723042 | 6.11° C | 92% | 1017.2 hPa | 0 mm | - | 43 W/m² | - |
| 1777722739 | 6.11° C | 93% | 1017 hPa | 0 mm | - | 41 W/m² | - |
| 1777722435 | 6.11° C | 93% | 1017.4 hPa | 0 mm | - | 44 W/m² | - |
| 1777722132 | 6.11° C | 94% | 1017 hPa | 0 mm | - | 46 W/m² | - |
| 1777721829 | 5.56° C | 95% | 1017.1 hPa | 0 mm | - | 46 W/m² | - |
| 1777721527 | 5.56° C | 95% | 1017.1 hPa | 0 mm | - | 40 W/m² | - |
| 1777721225 | 5° C | 95% | 1016.9 hPa | 0 mm | - | 40 W/m² | - |
| 1777720922 | 5° C | 95% | 1016.9 hPa | 0 mm | - | 30 W/m² | - |
| 1777720619 | 5° C | 95% | 1016.7 hPa | 0 mm | - | 23 W/m² | - |
| 1777720317 | 5° C | 95% | 1016.8 hPa | 0 mm | - | 17 W/m² | - |
| 1777720015 | 5° C | 95% | 1016.5 hPa | 0 mm | - | 11 W/m² | - |
| 1777719711 | 5° C | 95% | 1016.7 hPa | 0 mm | - | 7 W/m² | - |
| 1777719409 | 5° C | 95% | 1016.5 hPa | 0 mm | - | 4 W/m² | - |
| 1777719106 | 5° C | 95% | 1016.8 hPa | 0 mm | - | 3 W/m² | - |
| 1777718803 | 5.56° C | 95% | 1016.7 hPa | 0 mm | - | 1 W/m² | - |
| 1777718500 | 5.56° C | 95% | 1016.8 hPa | 0 mm | - | 1 W/m² | - |
| 1777718198 | 5.56° C | 94% | 1016.8 hPa | 0 mm | - | 0 W/m² | - |
| 1777717896 | 5.56° C | 94% | 1016.7 hPa | 0 mm | - | 0 W/m² | - |
| 1777717592 | 5.56° C | 94% | 1016.7 hPa | 0 mm | - | 0 W/m² | - |
| 1777717289 | 5.56° C | 94% | 1016.6 hPa | 0 mm | - | 0 W/m² | - |
| 1777716987 | 5.56° C | 94% | 1016.6 hPa | 0 mm | - | 0 W/m² | - |
* Rain latest hour (hover to see other rain measurements)
** Current wind speed in m/s (hover to see current wind gust speed)